Weather in Yuzhny

Russia / Novosibirsk Oblast     54°39′09″N   83°04′46″E
temp.,
°C
wind,
m/s
gust,
m/s
humid.,
%
clouds,
%
prec.,
mm/h
press.,
hPa
HPBL,
m
6 may, thu
thu601:00+9sse3371100 0.0 101231
04:00+9sse337068 0.0 101115
07:00+8se44735 0.0 101035
10:00+12se456230 0.0 1009119
13:00+15s465127 0.0 1007268
16:00+16s5751100 0.0 1005322
19:00+15ssw5658100 0.0 1004112
22:00+14s336684 0.0 100416
7 may, fri
fri701:00+13sse3368100 0.0 100317
04:00+11nw5981100 0.0 1004104
07:00+10nw588392 0.0 1008141
10:00+11wnw4666100 0.0 1010203
13:00+12w6950100 0.0 1011554
16:00+13w81147100 0.0 1011615
19:00+12wnw610505 0.0 1014401
22:00+10w58593 0.0 101785
8 may, sat
sat801:00+8w57683 0.0 101882
04:00+7w44711 0.0 102046
07:00+6wsw34740 0.0 102163
10:00+8sw686591 0.0 1021146
13:00+11wsw7115757 0.0 1019423
16:00+14w7125179 0.0 1018451
19:00+13wnw355483 0.0 101790
22:00+11w5766100 0.0 101886
9 may, sun
sun901:00+11wnw3368100 0.0 101931
04:00+10nne3376100 0.0 101920
07:00+8nne3489100 0.0 102150
10:00+10nne446769 0.0 1021163
13:00+11nne3457100 0.0 1021273
16:00+12nne235542 0.0 1021359
19:00+13ne56495 0.0 1020373
22:00+10ne4558100 0.0 102151
10 may, mon
mon1001:00+8ene3464100 0.0 102044
04:00+7ene466895 0.0 101965
07:00+7ne5967100 0.0 1019148
10:00+10ene61057100 0.0 1018269
13:00+12ne6948100 0.0 1016380
16:00+12ne7947100 0.0 1014430
19:00+12nne5852100 0.0 1014423
22:00+10nne6959100 0.0 1014125